CW4629 Weather Reports


time (UTC)temp
F
wind
direction
speed
knots
gust
knots
rain 1hr
in
rain 24hr
in
rain mn
in
humidity
%
barometer
mb
20260505171514 68 272 2.6 4.3 0.00 0.00 0.00 27 1013.1
20260505165514 68 297 3.5 4.3 0.00 0.00 0.00 27 1013.2
20260505164516 68 157 0.9 2.6 0.00 0.00 0.00 27 1013.1
20260505162530 66 111 1.7 3.5 0.00 0.00 0.00 27 1013.3
20260505161616 66 337 0.0 2.6 0.00 0.00 0.00 26 1013.4
20260505160614 66 71 1.7 4.3 0.00 0.00 0.00 27 1013.4
20260505152715 63 93 0.9 3.5 0.00 0.00 0.00 27 1013.7
20260505150830 64 180 0.0 1.7 0.00 0.00 0.00 29 1013.8
20260505140114 56 202 0.0 0.9 0.00 0.00 0.00 44 1013.8
20260505124516 48 360 2.6 5.2 0.00 0.00 0.00 55 1013.0
20260505123430 48 22 0.0 0.0 0.00 0.00 0.00 54 1012.8
20260505122516 49 22 0.0 0.0 0.00 0.00 0.00 53 1012.9
20260505121615 49 22 0.0 0.0 0.00 0.00 0.00 50 1012.8
20260505120615 49 22 0.0 0.0 0.00 0.00 0.00 50 1012.8
20260505115614 49 360 4.3 5.2 0.00 0.00 0.00 52 1012.7
20260505114614 50 22 3.5 4.3 0.00 0.00 0.00 51 1012.8
20260505113630 50 22 0.0 0.9 0.00 0.00 0.00 51 1012.8
20260505112714 49 22 0.9 2.6 0.00 0.00 0.00 50 1012.8
20260505112631 49 22 0.0 1.7 0.00 0.00 0.00 51 1012.9
20260505111713 50 1 0.9 2.6 0.00 0.00 0.00 50 1012.8
20260505110731 50 270 1.7 3.5 0.00 0.00 0.00 50 1012.6
20260505101814 51 135 0.0 0.0 0.00 0.00 0.00 46 1012.6
20260505100831 51 202 0.0 0.0 0.00 0.00 0.00 45 1012.4
20260505095913 52 202 0.0 0.0 0.00 0.00 0.00 45 1012.5
20260505094932 53 247 0.0 0.0 0.00 0.00 0.00 42 1012.4
20260505093915 53 247 0.0 0.0 0.00 0.00 0.00 43 1012.4
20260505093014 53 22 0.9 1.7 0.00 0.00 0.00 44 1012.4
20260505092931 53 22 1.7 2.6 0.00 0.00 0.00 44 1012.4
20260505091931 53 360 0.0 0.0 0.00 0.00 0.00 43 1012.5
20260505091014 53 360 0.0 0.0 0.00 0.00 0.00 41 1012.5
20260505090113 53 225 0.0 0.0 0.00 0.00 0.00 41 1012.4
20260505085131 54 337 0.0 0.0 0.00 0.00 0.00 40 1012.5
20260505084116 54 337 0.0 1.7 0.00 0.00 0.00 41 1012.7
20260505083116 53 360 0.0 0.9 0.00 0.00 0.00 41 1012.7
20260505082129 53 315 0.0 0.9 0.00 0.00 0.00 41 1012.8
20260505081212 53 315 0.0 0.0 0.00 0.00 0.00 41 1012.9
20260505080230 55 112 0.0 0.0 0.00 0.00 0.00 34 1012.8
20260505074330 55 157 0.0 0.0 0.00 0.00 0.00 36 1013.0
20260505073414 55 180 0.0 0.9 0.00 0.00 0.00 36 1012.9
20260505073331 55 180 0.0 0.0 0.00 0.00 0.00 36 1012.8
20260505072316 57 180 0.0 0.0 0.00 0.00 0.00 34 1012.7
20260505072215 57 180 0.0 0.0 0.00 0.00 0.00 34 1012.9
20260505071216 58 180 0.0 0.0 0.00 0.00 0.00 30 1012.8
20260505070229 59 67 0.0 0.0 0.00 0.00 0.00 27 1012.8
20260505065228 58 90 2.6 3.5 0.00 0.00 0.00 29 1012.7
20260505064315 57 45 0.0 0.0 0.00 0.00 0.00 32 1012.5
20260505063412 56 33 0.9 1.7 0.00 0.00 0.00 33 1012.4
20260505062414 56 22 1.7 2.6 0.00 0.00 0.00 36 1012.2
20260505062332 56 38 1.7 2.6 0.00 0.00 0.00 36 1012.3
20260505061414 57 67 0.0 0.0 0.00 0.00 0.00 33 1012.3
20260505060429 58 112 0.0 0.9 0.00 0.00 0.00 31 1012.2
20260505055512 58 247 0.0 0.0 0.00 0.00 0.00 33 1012.0
20260505054511 58 225 0.0 0.0 0.00 0.00 0.00 34 1012.1
20260505053528 59 202 0.0 0.0 0.00 0.00 0.00 32 1012.0
20260505052613 60 180 0.0 0.0 0.00 0.00 0.00 30 1012.1
20260505051611 60 180 0.0 0.0 0.00 0.00 0.00 31 1012.2
20260505050612 61 180 0.0 0.0 0.00 0.00 0.00 28 1012.2
20260505040912 65 199 0.9 2.6 0.00 0.00 0.00 24 1011.9
20260505035929 65 157 0.9 1.7 0.00 0.00 0.00 24 1011.6
20260505033013 67 202 0.0 0.9 0.00 0.00 0.00 23 1010.9
20260505031027 67 213 3.5 5.2 0.00 0.00 0.00 22 1010.9
20260505030028 68 204 2.6 3.5 0.00 0.00 0.00 21 1010.7
20260505025026 69 225 1.7 2.6 0.00 0.00 0.00 20 1010.5
20260505024112 69 230 4.3 6.1 0.00 0.00 0.00 20 1010.4
20260505023210 70 214 2.6 4.3 0.00 0.00 0.00 19 1010.3
20260505022210 71 222 5.2 7.8 0.00 0.00 0.00 18 1010.1
20260505021229 72 225 2.6 3.5 0.00 0.00 0.00 17 1010.2
20260505020312 72 228 5.2 8.7 0.00 0.00 0.00 17 1010.0
20260505015326 72 228 4.3 7.0 0.00 0.00 0.00 16 1009.8
20260505014313 73 236 5.2 7.8 0.00 0.00 0.00 16 1009.8
20260505013412 73 232 11.3 19.1 0.00 0.00 0.00 16 1009.8
20260505011430 72 228 5.2 8.7 0.00 0.00 0.00 17 1009.9
20260505011328 72 221 4.3 8.7 0.00 0.00 0.00 17 1010.0
20260505010311 73 207 6.1 8.7 0.00 0.00 0.00 17 1010.0
20260505005410 73 217 7.8 11.3 0.00 0.00 0.00 16 1010.0
20260505004426 73 217 7.0 11.3 0.00 0.00 0.00 17 1009.9
20260505003512 73 225 9.6 13.0 0.00 0.00 0.00 17 1009.9
20260505002528 73 231 9.6 16.5 0.00 0.00 0.00 18 1009.9
20260505001610 73 228 8.7 14.8 0.00 0.00 0.00 18 1009.9
20260505000629 73 221 9.6 15.6 0.00 0.00 0.00 20 1010.0
20260504235612 74 236 10.4 16.5 0.00 0.00 0.00 20 1009.9
20260504235529 74 233 8.7 13.9 0.00 0.00 0.00 20 1009.9
20260504234511 75 229 10.4 16.5 0.00 0.00 0.00 21 1009.8
20260504233527 75 233 10.4 16.5 0.00 0.00 0.00 22 1009.8
20260504232527 76 223 4.3 7.0 0.00 0.00 0.00 23 1009.8
20260504230511 75 216 7.8 12.2 0.00 0.00 0.00 24 1009.7
20260504230412 75 227 7.0 12.2 0.00 0.00 0.00 24 1009.8
20260504225410 75 234 7.8 12.2 0.00 0.00 0.00 25 1009.8
20260504224510 75 245 7.8 15.6 0.00 0.00 0.00 25 1009.8
20260504223511 76 242 8.7 11.3 0.00 0.00 0.00 24 1009.7
20260504223426 76 209 7.8 10.4 0.00 0.00 0.00 24 1009.7
20260504222425 76 229 12.2 16.5 0.00 0.00 0.00 24 1009.9
20260504221413 76 237 9.6 13.9 0.00 0.00 0.00 25 1009.7
20260504220510 76 238 9.6 17.4 0.00 0.00 0.00 24 1009.8
20260504215528 76 234 8.7 12.2 0.00 0.00 0.00 23 1009.9
20260504215426 76 232 12.2 18.2 0.00 0.00 0.00 24 1009.9
20260504214511 76 233 11.3 18.2 0.00 0.00 0.00 23 1009.9
20260504213528 76 210 11.3 18.2 0.00 0.00 0.00 22 1010.0
20260504212511 76 249 7.0 10.4 0.00 0.00 0.00 22 1009.9
20260504211527 76 222 7.8 14.8 0.00 0.00 0.00 22 1010.4
20260504210512 77 217 7.8 10.4 0.00 0.00 0.00 21 1010.4
20260504205511 76 218 4.3 7.0 0.00 0.00 0.00 21 1010.4
20260504204610 76 225 7.8 13.0 0.00 0.00 0.00 21 1010.4
20260504204526 76 222 10.4 15.6 0.00 0.00 0.00 21 1010.6
20260504203613 76 275 6.1 11.3 0.00 0.00 0.00 22 1010.5
20260504202710 76 255 7.0 13.9 0.00 0.00 0.00 22 1010.6
20260504201727 76 255 7.8 11.3 0.00 0.00 0.00 23 1010.5
20260504200712 76 247 7.0 12.2 0.00 0.00 0.00 23 1010.6
20260504200626 76 244 9.6 14.8 0.00 0.00 0.00 23 1010.5
20260504195712 75 247 3.5 8.7 0.00 0.00 0.00 25 1010.5
20260504193910 76 205 7.8 11.3 0.00 0.00 0.00 25 1010.7
20260504193812 76 223 8.7 12.2 0.00 0.00 0.00 25 1010.7
20260504192811 76 224 10.4 14.8 0.00 0.00 0.00 26 1010.7
20260504191909 76 238 9.6 12.2 0.00 0.00 0.00 25 1010.7
20260504190926 77 207 7.8 12.2 0.00 0.00 0.00 24 1010.9
20260504190811 77 182 6.1 11.3 0.00 0.00 0.00 24 1010.8
20260504185910 78 211 8.7 13.9 0.00 0.00 0.00 23 1010.7
20260504184928 79 101 0.9 3.5 0.00 0.00 0.00 22 1010.9
20260504183911 78 191 7.0 11.3 0.00 0.00 0.00 21 1011.3
20260504181010 77 127 2.6 5.2 0.00 0.00 0.00 26 1011.5
20260504180929 77 121 3.5 7.0 0.00 0.00 0.00 26 1011.5
20260504175927 76 22 2.6 5.2 0.00 0.00 0.00 28 1011.5
20260504174926 76 104 1.7 4.3 0.00 0.00 0.00 28 1011.8
20260504173913 76 98 0.0 1.7 0.00 0.00 0.00 30 1011.9
20260504172928 75 157 0.0 0.9 0.00 0.00 0.00 30 1011.9
20260504171946 75 157 0.9 3.5 0.00 0.00 0.00 32 1011.9